Simultaneous Nadir Overpasses (SNOs) Predictions

Prediction of SNOs between GOES-17 and NPP Satellite Orbit:

Table of predicted SNOs for the next 14.0 days since TLE Epoch: 12/2/2023
Index Date Time (GOES-17) GOES-17 Lat,Lon NPP Lat,Lon Distance(km) Time Diff (sec)
1 12/03/2023 08:33:25 -0.00,-104.67 0.42,-106.58 217.59 80
2 12/04/2023 08:12:00 -0.01,-104.67 -0.59,-102.04 298.49 80
3 12/05/2023 20:33:55 0.02,-104.64 -0.60,-107.34 308.57 80
4 12/06/2023 20:17:49 0.02,-104.64 0.41,-102.81 208.25 80
5 12/08/2023 08:39:36 -0.02,-104.67 0.76,-108.08 388.63 80
6 12/09/2023 08:18:10 -0.02,-104.67 -0.25,-103.54 127.96 80
7 12/10/2023 20:40:06 0.00,-104.64 -0.92,-108.85 479.11 80
8 12/11/2023 20:23:59 -0.01,-104.63 0.05,-104.30 37.75 80
9 12/14/2023 08:27:00 0.01,-104.65 0.08,-105.04 43.37 80
10 12/15/2023 08:05:34 -0.00,-104.65 -0.95,-100.51 472.52 80
